Theta_e
316 315 317 319 322 321 325 333 330 330 330 320 316 321 319 319 323 319 320 319 320 320 318 325 326 324 325 328 332 335 335 338 338 333 334 336 336 338 338 334 335 337 339 339 339 339 338 338 338 336 337 335 333 330 326 324 324 323 323 323 321 320 322 328 331 332 332 332 331 331 331 331 332 333 333 333 332 331 328 327 327 327 328 329 330 331 331 331 331 332 332 331 332 331 329 329 328
317 317 321 322 323 320 327 336 334 329 325 316 315 321 318 318 322 320 322 320 321 322 322 330 332 330 331 334 336 332 330 336 335 331 335 336 338 340 336 335 334 337 339 338 339 339 339 340 338 338 337 335 333 330 326 324 324 324 323 323 322 320 322 325 329 331 332 332 331 331 331 332 333 333 334 333 333 331 329 328 326 327 328 329 331 331 331 331 331 331 331 331 331 330 329 328 328
317 321 324 324 323 324 331 334 330 326 321 316 317 322 319 319 322 323 323 320 321 324 325 328 328 327 331 339 337 331 329 335 338 335 336 338 340 339 338 335 333 337 338 338 339 339 340 339 338 338 337 335 333 331 327 324 324 325 323 323 321 321 322 324 328 331 332 332 331 331 331 331 331 331 332 332 332 331 330 328 327 328 328 329 330 330 330 330 331 331 330 330 330 329 329 328 327
319 323 323 324 328 331 337 335 331 326 319 319 319 321 325 324 323 324 321 319 319 322 322 322 325 321 330 346 336 334 337 338 338 337 338 338 338 339 339 335 334 337 337 338 338 339 340 339 338 338 337 336 334 332 329 325 325 325 323 323 321 319 323 325 326 330 332 332 331 331 331 331 331 329 330 330 332 332 329 326 327 328 328 329 330 330 330 330 330 330 330 330 329 328 328 327 326
320 323 321 324 329 332 331 327 329 325 317 322 320 321 332 329 324 323 319 319 317 319 320 323 331 323 329 338 330 334 340 339 338 337 338 337 337 338 339 336 334 336 336 337 338 339 339 339 338 337 337 336 335 333 330 327 325 325 324 324 322 319 322 325 325 328 332 333 333 332 331 332 332 331 330 330 332 333 329 325 328 329 328 329 330 330 330 330 330 330 331 330 328 326 327 327 326
320 323 323 322 321 325 324 318 320 322 319 324 323 323 331 326 322 324 319 318 318 318 319 322 332 330 333 332 328 334 336 338 339 338 338 338 338 338 339 336 334 336 336 336 338 338 339 339 338 337 337 336 335 334 332 329 327 326 325 323 324 321 319 321 323 327 331 332 333 332 331 332 332 332 332 332 333 333 329 326 328 328 327 329 330 330 329 330 330 330 331 330 327 326 326 326 326
320 323 326 326 322 322 327 325 321 322 318 319 328 326 325 324 321 322 319 318 318 318 320 322 328 333 334 329 328 332 334 336 337 338 339 339 340 338 338 336 335 336 335 336 337 337 338 339 338 337 337 336 335 334 333 331 329 327 325 324 323 322 319 317 319 323 327 330 331 331 331 331 331 331 332 333 333 331 326 324 327 329 328 329 329 329 329 330 329 330 331 330 328 327 327 326 326
321 324 328 333 330 326 327 324 322 324 317 315 324 325 323 323 320 320 320 320 319 318 321 321 325 328 328 329 334 334 333 335 337 340 339 340 341 339 337 335 335 335 336 336 336 337 338 338 338 337 336 336 335 334 333 332 331 328 326 324 324 323 321 319 317 319 323 328 331 331 329 327 330 331 332 333 332 330 326 321 324 328 327 328 328 328 329 329 329 329 329 329 328 328 327 327 327
320 322 326 329 328 330 328 318 317 320 319 318 319 321 322 320 318 319 320 319 318 318 319 319 321 322 326 336 340 334 334 336 337 340 339 340 341 339 337 335 335 335 335 336 336 336 336 338 337 337 336 336 335 334 334 333 332 330 328 325 324 324 323 322 319 318 320 323 328 330 328 327 330 330 331 332 332 331 329 323 321 326 327 327 328 328 328 329 329 329 328 328 328 328 328 327 327
321 323 325 330 330 326 321 317 320 320 319 321 318 321 321 318 318 317 319 317 317 318 317 319 323 324 330 340 340 334 334 336 338 340 340 340 340 340 337 335 335 334 335 335 336 336 336 338 337 337 337 336 335 334 334 333 333 331 329 326 325 325 325 324 322 319 318 319 321 326 327 328 330 330 330 331 331 330 330 327 321 325 327 326 327 327 327 327 328 327 327 328 328 328 328 328 327
329 330 329 333 330 319 318 319 321 322 318 318 318 319 319 317 317 316 318 316 317 319 316 318 328 333 333 336 336 332 332 336 339 340 340 340 340 339 337 335 334 333 334 336 336 336 337 338 337 337 336 335 334 334 333 333 333 332 330 327 326 325 325 325 323 321 319 318 318 322 324 325 326 328 329 329 329 329 329 328 324 325 327 326 326 327 326 326 326 327 327 327 327 327 327 327 327
328 333 340 335 327 322 325 322 319 322 318 318 318 318 317 315 316 317 318 317 318 319 318 318 324 332 332 331 330 329 333 337 339 340 340 340 340 339 337 335 334 333 334 336 337 336 337 338 338 337 336 335 334 334 333 333 333 333 332 328 326 326 326 325 324 322 320 318 317 319 322 322 321 324 327 327 327 327 327 326 325 325 326 326 326 326 325 324 325 326 326 326 325 326 326 326 326
335 337 340 326 322 325 325 322 320 321 318 321 319 315 315 314 317 319 320 319 319 318 317 316 322 330 330 329 330 331 335 337 337 341 340 340 340 340 339 336 337 337 335 335 337 336 337 338 337 337 336 335 335 335 333 334 334 333 332 330 328 327 326 325 324 324 322 320 318 318 319 320 318 319 323 325 326 326 325 325 325 325 325 325 325 325 323 322 323 324 325 324 324 324 325 326 325
338 341 339 322 319 323 322 321 320 319 320 324 320 315 314 314 316 319 320 319 319 319 314 314 322 330 328 327 333 336 336 335 337 340 339 341 341 340 340 339 340 340 338 335 336 337 337 338 338 337 336 336 335 335 334 334 334 334 333 331 330 328 327 326 325 326 325 323 321 320 319 319 317 315 316 321 325 324 324 324 323 324 324 324 324 323 322 322 322 322 323 323 323 323 324 325 325
329 343 345 330 319 318 319 320 320 320 322 322 317 315 315 313 314 316 319 321 320 315 311 311 317 322 324 329 335 336 336 335 337 338 339 341 340 341 340 340 340 340 340 336 335 336 337 337 337 337 336 336 335 334 334 334 334 333 333 333 331 330 329 327 327 327 327 326 324 323 322 319 317 314 311 316 321 322 322 323 322 323 322 323 324 322 322 322 322 321 322 322 323 322 323 323 324
332 343 336 326 318 315 317 318 319 319 320 320 315 314 316 312 313 316 314 317 316 313 318 316 315 318 320 327 327 328 335 336 336 337 338 339 340 341 340 341 341 340 340 338 336 335 336 337 337 337 336 336 335 334 334 334 334 333 333 333 332 331 330 328 328 327 327 327 327 326 324 322 318 314 310 311 317 319 321 322 320 320 319 320 322 321 321 322 321 321 321 321 322 321 321 322 323
330 337 331 322 319 317 317 318 319 320 322 319 315 314 317 314 313 313 310 315 315 317 326 323 320 324 325 327 321 323 336 335 335 336 336 338 339 341 340 340 340 340 340 338 337 334 334 336 336 336 336 336 335 335 334 334 334 334 333 333 333 332 331 330 329 328 327 328 328 327 326 324 321 314 309 309 313 316 319 319 317 318 319 320 321 319 320 321 321 321 320 320 320 320 320 320 321
327 335 332 321 322 322 321 322 318 320 321 317 316 316 319 316 314 313 312 317 317 316 322 324 326 327 326 327 321 326 336 334 335 336 337 337 338 340 340 340 340 340 340 339 337 335 334 334 336 336 335 335 335 335 333 332 334 334 334 334 334 333 332 331 330 329 327 327 328 328 328 327 324 316 309 308 310 313 316 316 316 319 320 320 319 317 319 321 320 320 320 320 320 320 319 319 320
333 335 326 325 332 323 320 323 317 317 318 317 317 316 317 317 315 314 314 316 316 316 318 322 329 333 329 326 325 331 335 334 335 335 336 337 337 339 339 340 340 340 340 340 338 335 334 334 335 335 335 335 335 334 332 332 333 334 334 334 334 333 333 332 330 329 328 328 328 328 328 327 326 319 310 307 308 310 313 314 315 318 319 318 317 316 318 320 320 320 319 319 319 319 319 319 320
329 330 322 330 336 322 317 320 317 316 317 317 316 314 314 315 314 313 316 317 315 318 320 320 329 344 337 328 328 332 333 333 334 335 335 336 336 337 339 340 341 341 341 340 339 337 335 334 334 335 334 334 334 334 332 332 332 334 334 334 334 334 333 332 331 330 329 328 328 327 327 327 327 322 313 307 308 308 310 312 313 315 317 316 316 316 317 319 320 319 319 319 319 318 318 319 320
319 327 329 328 325 319 316 317 317 316 316 317 316 314 314 314 313 313 317 317 316 319 322 319 327 348 337 328 330 330 331 332 332 333 334 335 336 336 338 339 340 341 340 340 339 338 336 335 335 335 335 333 333 333 333 332 332 334 334 334 334 334 333 333 332 331 329 329 328 327 327 327 327 325 316 307 306 307 306 308 310 313 314 315 316 315 316 318 319 319 319 319 319 318 318 319 319
316 318 322 321 317 315 315 316 316 315 314 315 316 315 314 313 313 316 317 319 320 317 319 319 323 342 336 329 330 329 330 331 330 332 332 334 335 336 338 338 339 340 340 340 339 339 338 336 336 335 335 334 333 333 333 332 332 333 333 334 333 333 334 333 332 331 330 329 328 328 327 327 327 326 320 309 305 305 304 303 306 311 312 313 315 315 315 317 319 319 319 318 318 318 318 318 319
318 315 314 317 316 315 315 316 316 314 315 316 317 314 313 314 314 315 316 319 321 317 317 315 318 330 331 328 329 330 330 329 329 331 331 333 334 335 337 337 339 338 339 339 339 339 338 337 336 336 336 335 334 334 334 333 332 332 332 333 332 332 333 333 332 332 331 329 328 328 327 327 327 326 324 314 306 303 303 300 303 309 311 312 315 314 314 316 317 318 319 318 318 318 318 318 319
321 318 314 315 315 315 315 316 316 316 318 317 314 313 314 317 315 312 313 317 318 315 310 306 314 324 328 327 329 329 329 329 330 331 331 332 334 335 336 336 337 337 338 339 338 338 338 338 336 336 337 336 334 334 334 333 333 332 331 332 331 331 332 331 331 331 331 329 328 328 327 327 327 326 326 321 310 303 302 301 301 306 310 312 314 314 313 314 315 316 317 317 318 318 318 318 319
320 318 315 315 314 315 315 316 318 317 317 315 313 315 316 315 313 312 316 319 317 316 310 311 321 326 328 329 330 328 327 328 329 330 330 331 333 334 334 335 336 337 337 337 338 338 338 337 337 337 337 337 336 334 335 334 333 333 332 331 331 330 330 330 331 330 330 329 328 328 327 327 327 326 326 325 317 305 301 301 302 305 309 311 313 313 312 312 313 314 315 315 316 317 317 318 319
318 317 317 316 315 315 314 316 318 318 316 314 314 316 315 312 311 315 320 319 317 319 321 325 331 332 330 330 328 327 326 327 328 329 329 330 330 331 333 334 335 336 335 336 337 337 338 337 337 338 338 338 337 336 335 335 334 333 332 332 331 330 329 329 330 330 329 329 328 327 327 327 327 327 326 326 322 310 301 301 302 304 309 311 312 313 312 311 312 313 313 314 315 316 317 318 318
317 318 317 317 316 314 315 316 316 317 316 315 317 316 315 313 313 317 319 314 314 322 328 327 334 338 331 329 328 326 326 326 328 328 328 329 328 329 331 332 333 335 334 335 336 336 337 337 336 337 338 338 338 338 336 335 335 334 334 332 332 331 330 329 329 329 329 329 328 327 327 327 327 327 326 326 324 315 304 301 302 304 307 310 311 312 312 311 311 312 313 314 315 316 317 317 318
315 318 317 317 318 314 314 316 315 316 314 315 317 315 315 313 316 319 315 312 313 322 329 326 333 338 329 329 328 324 325 326 327 327 327 327 328 328 328 330 332 333 334 334 334 335 336 336 337 336 337 338 338 338 337 337 336 335 335 334 333 333 332 331 329 329 329 329 329 327 328 328 327 327 326 326 325 320 308 302 302 302 304 307 310 311 311 311 311 312 313 314 315 316 317 317 318
315 318 316 318 321 316 313 315 315 315 314 315 316 312 314 315 317 318 314 313 313 318 326 326 327 328 325 327 326 325 324 324 325 325 326 326 328 328 327 328 329 331 333 334 334 334 335 336 337 336 336 336 336 337 337 338 337 337 336 335 335 334 334 333 332 331 330 329 329 328 328 328 328 327 327 327 326 323 314 307 305 304 303 304 308 310 309 310 311 312 313 314 315 316 316 317 317
315 316 319 319 319 316 312 314 315 314 314 315 313 311 317 318 316 314 311 313 314 316 322 324 324 321 320 321 323 325 321 320 322 323 325 326 326 327 327 327 327 328 329 331 332 333 335 336 336 337 336 335 335 335 336 337 336 336 337 337 336 336 335 334 333 333 332 332 330 328 328 328 329 328 327 327 326 325 319 311 308 307 306 304 305 307 308 309 310 311 312 313 314 315 316 316 316
315 313 322 321 313 316 317 315 316 313 313 313 310 312 319 319 316 313 310 312 314 317 321 320 321 319 317 317 319 321 319 317 320 322 324 324 325 325 326 326 326 326 326 327 328 330 332 334 335 336 336 336 335 335 335 336 336 335 337 337 336 335 335 335 334 334 333 333 332 330 329 328 329 328 327 327 327 326 322 316 312 310 308 306 304 305 306 307 308 310 311 312 314 315 315 315 315
321 313 321 320 311 318 321 315 316 314 313 313 310 313 319 319 318 313 310 313 314 317 321 319 318 318 316 315 314 316 315 313 314 318 320 321 323 323 324 324 324 325 325 325 325 326 328 330 333 335 335 336 335 335 335 336 336 335 337 338 336 334 334 334 334 334 334 334 334 332 331 330 329 329 327 326 326 325 323 320 317 314 310 307 305 304 304 305 307 309 310 312 313 314 314 314 314
325 317 320 321 314 317 318 315 316 315 315 315 312 314 319 319 318 317 313 313 313 315 320 319 317 317 315 314 313 312 312 311 310 311 315 318 319 320 321 321 321 323 323 324 325 325 326 327 330 332 334 335 335 335 335 335 335 335 336 337 337 335 333 333 333 334 334 333 334 333 332 331 330 330 329 328 325 324 323 320 316 313 310 308 308 305 304 305 306 308 310 311 312 313 313 313 312
321 319 319 320 318 317 317 317 316 315 315 316 315 315 319 320 319 321 316 312 314 316 320 321 319 317 315 314 312 312 312 313 311 308 311 315 316 318 318 317 318 320 321 323 325 325 325 326 327 329 332 333 334 335 334 334 334 334 335 336 337 336 336 335 334 334 335 334 333 333 332 331 330 329 329 329 327 325 323 319 314 311 308 307 307 307 306 305 306 308 309 310 311 312 312 312 310
318 318 317 316 316 315 318 319 315 314 315 316 317 316 319 321 318 320 316 310 313 318 319 319 319 318 317 314 313 312 312 313 311 308 309 312 313 315 316 317 317 317 319 321 324 325 326 327 327 327 329 331 332 332 332 332 333 334 335 336 336 336 336 336 336 336 335 335 334 334 334 332 331 329 328 329 327 325 323 318 313 309 308 307 306 306 306 306 307 307 309 309 308 309 310 310 309
318 320 322 321 319 317 319 319 314 314 317 317 318 318 321 321 317 319 318 311 312 317 317 317 318 316 315 314 313 312 312 312 309 308 309 310 311 312 314 315 316 317 318 319 322 325 326 327 328 328 328 329 330 331 331 332 332 334 334 334 335 335 336 336 336 336 336 336 335 334 334 333 333 332 331 328 324 322 321 319 314 309 308 307 307 306 306 307 308 308 308 308 306 305 305 307 308
318 320 325 323 320 319 317 317 315 314 316 317 317 318 320 320 317 318 315 310 312 316 317 317 317 315 313 313 313 312 312 311 308 307 309 310 310 311 311 312 315 317 319 319 321 323 325 326 327 328 328 329 330 330 331 331 332 332 332 333 333 333 334 335 335 335 335 335 335 335 334 333 333 333 332 329 325 322 321 321 318 312 309 309 309 308 307 308 308 308 307 306 306 304 302 302 304
318 319 323 320 319 320 315 315 317 314 314 316 316 317 318 318 318 316 313 311 314 316 317 317 315 313 312 312 313 313 311 310 310 309 308 309 310 311 310 310 312 316 318 319 320 321 323 325 327 327 328 329 329 330 331 331 331 331 331 332 332 331 331 333 333 334 334 334 334 334 334 334 333 333 333 330 327 325 324 323 318 312 310 310 310 308 307 307 306 307 306 304 304 305 303 301 302
323 320 321 320 318 319 315 315 316 314 314 318 320 320 318 317 317 315 313 313 313 313 314 314 313 312 311 311 312 311 311 312 313 310 307 307 309 310 310 311 311 314 316 318 320 321 323 325 326 327 328 329 329 330 330 330 331 331 331 331 330 330 329 330 331 331 332 333 333 333 333 334 333 332 333 332 328 325 322 321 318 314 312 312 312 309 307 306 305 305 307 306 303 302 302 301 301
324 322 321 319 318 319 318 316 315 314 313 317 321 318 316 316 318 318 315 311 312 313 313 312 312 312 311 311 311 311 311 312 314 313 309 306 307 309 310 311 312 313 316 318 319 321 323 324 325 327 328 329 329 329 329 330 330 330 330 329 328 328 328 328 327 328 329 330 332 332 332 332 332 332 332 332 331 328 325 323 321 319 316 314 313 310 308 306 305 305 305 306 304 300 297 297 300
321 330 332 326 323 322 319 316 317 316 313 315 317 314 321 327 326 329 324 312 311 314 315 315 314 312 311 311 311 311 312 312 313 314 312 305 304 308 310 311 312 313 315 317 319 320 322 322 323 325 327 328 329 329 329 328 328 328 327 326 326 326 325 325 325 325 326 327 328 329 330 330 331 331 331 331 332 331 329 326 325 324 320 315 311 309 308 306 306 306 305 306 306 304 299 296 297
315 326 333 330 330 326 319 319 322 321 316 313 311 312 329 337 329 329 327 317 314 314 312 316 316 312 311 313 311 309 312 314 313 313 311 306 304 307 309 311 312 313 315 316 318 320 321 321 322 324 326 327 328 328 328 328 327 327 326 325 324 324 324 324 325 325 325 325 326 326 327 327 328 329 330 331 331 330 329 327 324 322 319 316 312 308 307 306 305 306 305 305 306 307 305 298 296
313 317 320 323 330 326 320 320 319 319 315 310 312 314 321 325 321 322 322 318 317 315 314 318 317 310 310 313 314 315 316 318 317 315 313 307 305 306 308 310 312 313 314 315 317 319 320 322 323 324 325 326 327 327 328 327 327 326 326 325 325 324 324 324 325 325 325 325 325 325 325 325 325 327 328 329 329 328 327 327 326 322 318 316 313 309 308 307 307 307 306 306 305 304 305 301 297
313 315 320 326 329 325 325 325 321 321 315 315 323 321 314 317 317 318 319 319 321 319 319 321 317 313 312 312 315 321 324 324 325 326 323 311 305 306 309 311 312 313 314 315 317 318 320 321 322 323 325 325 326 327 327 327 326 326 325 325 324 324 324 324 325 324 324 323 323 323 322 323 323 325 327 327 328 327 325 325 326 325 320 315 311 309 309 308 308 307 305 304 303 300 302 303 300
316 316 322 326 327 329 333 334 329 321 312 319 328 316 312 322 323 321 318 315 318 320 319 319 318 318 317 315 315 317 321 324 324 329 326 312 305 308 311 312 313 313 314 315 317 318 318 320 321 322 324 325 325 325 325 325 325 325 325 324 323 324 324 323 323 322 322 322 321 321 320 320 322 323 325 326 325 326 325 324 324 324 321 316 312 309 308 307 305 305 304 303 302 300 301 302 301
317 315 319 321 324 329 331 330 326 315 312 325 327 313 311 319 325 326 316 313 319 322 319 320 320 318 316 317 319 317 320 325 325 325 316 306 307 310 311 312 313 314 315 315 316 318 318 319 320 321 322 323 323 324 324 324 324 324 323 323 323 323 323 322 321 320 320 319 319 319 318 318 319 321 324 325 324 323 323 323 322 322 321 318 315 311 308 306 304 304 305 305 304 302 301 300 301
314 319 322 320 324 330 331 331 323 311 319 330 322 315 312 311 323 330 317 314 321 320 322 323 320 318 316 321 330 330 331 331 331 330 315 304 308 311 311 314 314 313 315 315 316 317 318 319 319 320 321 321 322 322 322 322 322 323 322 323 322 322 322 320 319 319 318 318 317 317 316 316 316 317 319 321 323 323 322 321 321 321 320 318 315 313 309 308 307 305 304 303 304 303 302 300 300
318 325 324 318 322 326 328 331 320 312 326 327 316 315 313 311 322 327 321 320 317 314 320 323 319 320 320 326 336 334 331 328 328 333 325 313 312 311 311 314 313 314 314 314 316 317 317 318 319 319 319 320 321 320 321 321 321 321 321 321 321 321 320 319 318 318 317 316 316 316 315 314 313 314 314 316 318 320 320 320 319 319 319 317 316 314 311 309 308 306 304 303 303 302 302 300 299
321 320 321 318 320 319 323 331 322 318 324 317 314 317 313 314 318 317 319 321 317 313 316 319 317 319 323 328 338 336 330 328 330 333 334 332 322 310 309 314 313 314 315 314 316 316 316 317 317 318 318 319 319 319 319 319 319 319 319 319 319 319 318 317 317 317 316 316 315 315 314 313 312 312 312 312 313 315 317 318 318 317 318 317 317 315 312 310 307 306 304 303 302 301 301 299 298
317 316 320 320 320 316 320 326 317 317 321 314 312 316 315 318 315 313 316 313 313 314 314 318 318 317 321 323 330 335 331 329 333 336 341 340 320 306 308 312 312 314 315 314 315 315 315 316 316 316 317 317 317 317 317 317 318 318 317 318 318 317 317 317 316 316 315 315 314 314 313 312 312 312 311 311 310 310 312 314 315 315 316 316 316 315 313 310 308 307 305 304 302 301 301 299 298
315 316 316 317 325 324 321 323 320 321 323 316 311 315 323 322 311 313 316 312 314 314 312 314 315 315 317 317 321 329 333 336 335 334 338 326 308 306 310 310 312 314 314 314 314 314 314 314 315 315 315 315 315 315 316 316 316 316 316 316 316 316 316 316 316 315 314 314 313 313 312 312 311 311 311 310 310 308 308 309 311 312 314 315 315 314 313 311 309 307 306 305 304 303 301 300 299
316 313 311 313 322 326 319 315 320 320 319 318 315 318 327 320 312 315 314 312 315 316 314 315 318 321 321 324 325 326 335 345 339 335 342 327 306 305 310 309 312 314 313 314 314 314 315 314 314 315 314 314 314 314 315 314 315 315 315 316 315 315 315 315 315 314 314 313 312 312 311 311 311 310 310 310 309 308 307 307 308 309 312 314 314 313 312 311 310 308 306 305 304 303 302 300 299
315 312 317 319 316 325 321 310 312 313 311 317 317 319 323 315 314 318 314 313 317 318 319 318 322 325 325 328 327 326 338 349 345 345 349 330 307 304 309 309 312 313 313 315 314 314 315 314 314 314 313 314 313 313 314 313 314 314 314 315 314 314 314 314 314 313 313 313 312 311 311 310 310 310 310 309 308 308 306 306 307 309 310 312 314 314 313 313 312 309 308 306 305 304 302 301 300
318 318 321 317 311 319 322 313 318 318 315 319 317 315 319 314 316 320 314 312 315 317 318 318 320 322 324 326 322 323 333 338 338 341 335 319 305 305 309 309 311 313 313 314 314 314 314 313 314 314 313 314 313 313 314 313 314 314 314 314 314 314 314 313 313 313 313 312 311 311 310 310 310 309 309 309 308 307 306 307 308 309 310 312 313 314 313 313 312 310 308 306 306 305 303 302 301
318 321 318 316 316 320 317 314 320 319 315 322 321 314 313 313 317 321 314 313 319 320 318 316 317 320 325 326 317 314 318 320 325 330 332 322 307 305 310 311 312 313 312 314 313 313 313 313 313 313 313 313 313 313 313 313 313 313 314 313 313 313 313 312 313 312 312 312 311 310 310 309 309 309 309 308 308 307 307 307 308 309 310 311 312 313 313 312 311 309 308 306 306 305 303 302 301
312 313 311 315 322 322 318 315 317 316 314 319 322 320 317 315 317 317 313 316 323 324 321 319 319 322 324 322 319 319 318 319 324 328 334 326 308 305 310 312 313 313 312 313 312 312 312 312 312 312 313 313 313 313 313 313 313 313 313 313 313 313 313 312 312 312 311 311 311 310 309 309 309 308 308 308 308 308 308 307 307 308 309 309 311 311 311 311 310 309 309 307 307 305 303 302 301
314 315 313 316 317 316 318 317 315 319 320 319 320 319 322 323 318 317 316 317 321 324 321 321 323 325 323 320 324 327 321 323 327 327 329 317 304 306 310 310 312 313 313 313 312 312 311 311 311 312 312 312 312 313 313 313 313 313 313 313 313 312 312 312 312 311 311 311 310 310 309 309 308 308 307 307 308 308 309 309 308 309 310 310 310 311 311 310 309 309 308 307 306 304 302 302 301
315 315 315 316 316 316 317 315 314 316 317 320 319 313 320 327 318 315 318 316 317 318 315 318 325 326 327 326 326 322 318 323 325 326 329 314 301 305 309 309 311 312 313 314 313 312 312 311 312 311 311 312 312 312 312 312 312 312 313 312 312 312 312 312 311 311 311 310 310 309 309 308 307 307 307 307 307 308 309 309 309 309 310 310 310 310 310 310 309 308 307 306 305 303 302 301 300
Wind_Speed
6 4 1 1 1 0 3 5 2 2 4 2 0 2 2 2 2 3 3 1 1 1 2 1 3 4 3 4 7 7 3 4 5 4 3 4 12 27 22 20 24 23 22 21 20 19 18 17 16 16 14 13 13 14 13 13 14 14 14 15 16 16 16 17 17 17 17 17 17 17 17 17 16 15 15 15 15 17 17 16 18 20 21 21 20 20 20 19 20 20 20 22 22 21 22 22 23
6 2 1 2 1 1 1 3 3 3 5 1 2 3 2 2 1 5 6 4 3 2 2 5 7 6 5 6 6 4 3 2 4 3 1 5 18 24 19 21 24 24 23 21 21 19 18 17 17 16 14 14 13 14 13 13 13 13 13 14 16 16 17 17 17 17 17 17 17 17 17 17 16 15 16 15 15 16 17 17 19 21 21 20 20 19 19 19 20 21 21 22 23 23 23 23 23
4 1 2 4 1 3 1 4 2 1 4 3 4 3 1 1 5 6 6 5 6 6 4 5 6 4 4 5 3 2 2 2 2 1 2 12 16 18 19 21 24 23 23 22 21 19 18 18 17 16 15 14 13 14 13 13 13 13 13 14 15 16 17 17 17 17 17 16 17 17 16 15 15 15 15 15 16 17 18 18 20 21 20 19 19 19 19 19 20 20 20 21 22 22 21 20 21
3 1 2 4 1 4 4 4 2 4 4 4 3 4 2 5 7 6 5 4 4 3 1 3 4 1 3 4 1 2 2 1 1 2 5 12 14 20 21 21 23 22 23 23 21 20 19 18 17 16 15 15 14 14 13 13 12 13 13 13 15 15 16 16 17 18 17 16 17 16 15 14 14 15 14 15 18 19 17 18 21 20 20 19 19 19 19 19 19 19 19 19 19 19 18 19 19
2 1 1 3 2 2 3 3 2 4 4 5 2 5 5 6 7 5 3 3 3 2 2 3 3 2 2 3 1 2 2 1 2 2 8 11 15 22 21 22 24 23 24 22 21 20 19 19 17 17 15 15 14 14 13 13 12 12 12 13 14 15 15 15 16 17 17 15 15 15 15 14 13 15 14 15 18 19 17 19 21 20 19 20 19 19 18 18 18 18 18 18 18 18 18 19 20
1 2 3 4 3 1 3 1 2 2 5 5 4 5 5 6 6 6 2 2 3 2 3 2 3 2 2 1 0 3 1 2 2 4 11 13 17 22 21 23 23 23 24 21 21 20 19 19 17 17 15 15 14 14 13 12 12 12 12 13 14 15 15 15 16 16 16 15 14 15 15 14 14 14 15 16 18 18 17 19 21 20 20 19 18 18 18 17 17 18 17 18 18 18 19 19 20
1 1 3 5 2 2 3 3 4 3 3 5 5 5 7 7 5 6 3 1 1 2 2 1 4 6 2 2 1 1 2 1 3 7 14 15 19 22 22 23 22 23 22 21 21 20 20 18 17 17 16 15 14 14 13 13 12 12 12 12 13 14 15 15 15 15 15 16 15 15 15 14 14 14 14 16 17 17 17 19 21 21 19 18 18 17 17 17 17 17 17 17 17 17 17 18 18
1 1 1 4 2 3 4 2 3 3 1 3 4 5 7 7 5 6 4 2 2 1 2 2 2 6 1 1 2 2 3 4 5 10 16 16 22 23 23 23 23 23 22 22 21 20 20 18 18 17 16 15 15 14 13 13 12 12 11 12 13 13 14 15 15 15 15 16 16 14 13 13 13 14 14 14 14 14 15 18 20 20 19 18 18 17 17 17 16 17 17 17 17 16 16 17 17
3 2 0 3 2 3 3 1 1 2 2 3 3 3 4 5 4 5 4 1 1 3 2 5 2 2 2 3 1 4 3 5 9 13 17 19 23 23 23 24 23 23 22 22 21 21 20 18 18 17 16 15 15 15 13 13 12 12 11 11 12 12 13 14 14 14 14 15 16 15 13 13 12 12 12 13 12 11 12 14 17 19 19 19 17 16 16 16 16 16 16 17 16 16 16 15 16
4 3 1 2 2 3 3 1 1 1 3 3 4 4 4 5 4 3 4 2 1 4 2 2 2 2 4 3 1 2 1 8 13 16 18 21 23 23 24 23 23 22 22 22 21 21 20 19 18 18 17 16 15 14 14 13 13 12 12 12 11 11 12 13 14 14 14 14 15 15 14 15 14 11 11 11 11 11 11 12 16 18 19 18 16 15 15 15 16 16 16 16 16 16 15 15 16
3 4 3 3 3 2 2 2 3 3 3 3 2 3 4 5 5 2 2 3 1 3 2 0 3 3 4 1 2 1 2 11 17 21 22 22 22 23 24 23 22 21 21 22 21 22 21 20 19 18 17 16 16 15 14 14 13 13 12 12 12 12 12 13 13 14 14 13 14 14 13 14 14 13 12 12 11 11 11 11 15 18 19 17 15 15 15 16 16 16 17 16 16 16 16 16 16
2 3 4 4 2 3 4 4 3 4 4 3 1 3 4 5 5 4 3 4 1 2 3 2 3 5 4 1 3 2 3 13 19 23 24 23 23 22 22 22 21 20 21 21 22 23 22 21 20 19 17 16 16 15 15 14 14 13 13 13 12 12 12 12 13 13 13 13 13 13 12 12 12 12 13 13 12 12 12 13 16 18 19 16 15 15 16 17 17 16 16 16 17 17 18 17 17
3 2 5 2 3 3 4 4 3 2 4 3 3 2 5 5 4 7 7 4 3 3 3 5 6 6 3 2 3 3 5 14 19 23 25 24 23 22 21 21 21 19 19 21 22 23 23 22 21 20 18 17 17 16 16 15 14 14 14 13 12 12 12 12 12 12 12 12 12 12 11 10 10 11 12 13 13 13 13 15 17 18 18 16 15 16 16 17 17 16 17 17 18 18 18 18 18
3 3 5 2 1 3 5 3 2 2 3 5 2 2 5 3 4 7 8 5 4 5 2 3 6 5 2 1 2 3 8 16 20 23 24 25 24 22 22 21 20 19 19 21 22 23 23 23 22 21 19 18 17 17 16 16 15 14 14 13 13 12 12 12 11 11 11 11 11 11 10 9 9 9 10 12 13 14 15 16 17 17 17 16 16 16 16 16 16 16 17 17 18 17 17 18 18
3 3 4 3 1 1 4 2 3 5 4 5 3 5 4 2 4 5 6 7 5 5 0 1 3 2 2 4 3 6 15 20 21 22 23 24 24 23 22 22 21 20 20 21 22 23 24 23 23 22 20 20 18 18 17 17 16 15 14 14 13 12 12 12 11 11 10 10 10 10 9 8 8 8 9 11 13 14 15 15 16 17 16 16 16 16 16 16 16 17 17 18 17 17 17 17 17
3 4 5 3 1 2 3 2 4 3 5 5 3 5 5 3 3 4 4 5 4 1 2 0 1 1 4 7 3 11 24 24 21 22 22 22 22 23 22 22 22 21 21 22 22 23 24 24 24 23 22 21 20 19 18 18 17 16 15 14 14 13 13 12 12 11 10 10 9 9 9 8 8 8 8 10 12 14 15 15 16 17 16 16 15 16 17 16 16 17 17 17 17 16 16 17 17
3 4 4 2 2 3 4 4 5 4 5 5 3 4 7 2 1 2 1 5 5 2 3 2 2 3 3 4 6 13 30 24 22 22 20 20 20 22 22 23 23 23 24 24 24 24 25 25 25 24 23 22 20 20 19 19 18 17 16 15 15 14 13 13 12 12 11 10 9 9 9 8 8 8 9 10 12 13 14 14 16 17 16 15 15 17 17 15 15 15 16 16 16 16 15 16 17
4 3 3 1 3 4 5 7 7 4 5 7 6 6 8 5 3 2 2 5 4 2 3 3 4 4 2 5 2 20 31 24 23 23 21 20 20 22 22 23 24 24 25 25 25 25 26 26 25 25 23 22 21 21 20 20 20 19 18 17 16 15 14 14 13 13 12 12 11 10 9 8 8 9 10 11 12 13 14 14 16 17 16 16 17 17 17 16 16 16 16 16 16 15 15 15 16
3 3 3 3 6 5 5 7 6 3 4 7 6 5 6 7 5 3 3 0 2 3 1 5 4 5 5 2 10 25 28 24 24 23 22 21 21 23 22 23 25 26 27 27 27 27 27 26 26 25 24 23 23 22 21 21 21 20 19 18 18 17 16 15 14 14 14 13 12 11 10 9 8 9 10 12 13 14 14 14 16 17 17 19 18 18 17 17 17 16 17 16 16 15 14 16 17
2 4 2 5 6 4 4 5 7 4 4 7 5 3 3 4 4 2 4 4 2 5 4 0 3 6 2 4 13 22 24 22 23 22 22 21 21 23 23 24 27 29 30 29 28 28 28 27 27 26 25 25 25 24 23 22 22 21 21 20 19 19 17 16 16 16 15 14 13 12 12 10 9 10 11 13 14 15 15 14 16 18 19 21 20 19 18 17 17 17 17 16 16 15 15 16 17
2 4 3 5 4 2 4 6 6 4 5 7 6 4 3 3 2 3 7 6 2 6 7 7 8 8 6 5 10 18 20 19 20 20 21 21 21 22 24 26 29 29 29 28 28 29 29 29 28 28 27 26 26 25 25 24 23 23 23 22 21 20 19 18 17 17 17 16 15 14 13 12 11 10 12 14 15 15 16 15 17 19 20 21 20 19 18 17 17 17 17 17 16 15 15 17 18
2 0 4 5 3 2 3 5 4 3 5 5 7 6 4 2 1 4 9 7 6 7 8 10 10 11 13 11 12 15 15 17 18 20 21 22 22 23 24 25 26 26 26 28 29 30 29 30 30 29 28 27 27 27 26 25 25 25 25 24 24 22 21 20 19 19 18 17 16 16 15 14 13 12 12 14 15 15 16 16 17 19 20 21 20 19 18 18 18 17 17 16 16 15 16 17 18
2 2 1 3 4 2 1 0 2 4 8 7 7 5 3 4 1 2 8 8 7 6 6 8 7 11 15 15 15 13 13 15 18 23 25 25 26 26 27 27 27 27 28 30 30 30 30 30 31 30 30 29 28 28 27 26 26 27 26 26 26 24 24 23 22 21 20 19 18 17 16 15 14 13 13 13 15 15 16 16 17 19 20 20 20 19 19 18 18 18 17 16 16 16 16 17 18
4 2 1 1 2 1 2 2 1 4 8 6 5 4 3 5 3 1 5 9 8 5 4 4 9 12 14 13 13 13 15 19 22 27 29 30 32 31 30 29 28 28 28 30 30 30 31 32 32 31 31 30 30 29 28 28 28 28 27 28 27 26 25 25 24 22 21 21 20 19 18 16 16 15 14 13 14 16 16 17 17 18 19 20 20 19 19 19 18 17 17 17 17 17 17 18 18
3 3 2 1 1 2 4 4 5 5 4 2 5 5 1 4 3 1 6 10 8 4 2 5 11 12 11 11 12 12 13 18 21 24 26 29 29 27 26 26 26 26 28 30 31 31 32 33 33 32 32 32 31 30 30 30 29 29 29 29 29 28 27 26 25 24 23 23 22 21 20 18 17 16 15 14 14 15 17 18 18 19 19 20 20 19 19 19 19 18 17 17 17 17 18 19 20
2 4 3 3 2 5 4 4 6 4 2 2 5 2 3 2 1 2 8 8 3 2 5 5 9 9 10 10 11 12 11 16 20 22 25 26 24 23 25 27 27 29 31 31 31 32 33 33 34 33 33 33 32 32 31 31 31 31 30 30 30 29 28 27 26 25 25 24 24 23 21 20 18 17 16 15 15 16 18 18 19 19 19 20 20 20 19 19 19 19 18 18 18 18 18 20 21
3 6 5 5 2 4 3 3 4 3 2 2 5 3 4 2 2 4 6 4 1 6 6 4 8 9 10 9 10 13 13 18 23 22 20 20 21 25 28 29 31 33 32 32 33 34 33 34 34 34 34 33 33 33 33 32 32 32 32 31 30 30 28 27 27 26 26 26 25 24 23 22 20 19 18 16 16 17 19 19 19 20 20 20 20 20 19 19 19 19 18 18 18 19 20 21 22
5 7 5 6 5 2 4 4 2 3 2 2 6 2 4 3 2 5 4 5 1 7 6 5 7 7 9 9 9 10 13 20 22 18 18 22 27 31 32 34 37 36 35 37 37 35 34 35 35 35 34 34 33 33 33 33 33 33 32 31 31 31 29 28 28 27 28 28 27 26 25 24 23 21 20 19 18 18 20 20 20 20 20 20 20 20 20 20 19 19 19 19 19 20 21 23 23
4 5 4 6 7 4 2 2 2 2 2 1 3 1 4 3 5 6 1 4 2 5 6 6 7 6 6 7 7 7 13 17 16 18 24 29 32 32 35 39 39 37 39 40 36 35 36 36 36 36 35 35 35 34 33 33 33 33 33 32 32 31 30 29 29 29 28 29 29 28 27 26 26 24 22 20 20 20 21 21 21 20 21 21 21 20 20 21 21 21 21 21 21 22 23 23 24
2 4 5 2 6 3 2 1 1 2 2 3 2 1 6 8 9 5 2 3 5 3 6 6 6 6 5 6 6 7 12 14 16 24 30 31 31 31 35 39 37 37 39 36 35 36 38 37 37 37 36 37 37 35 35 34 34 33 34 33 32 32 32 31 31 31 29 29 30 30 30 29 28 28 26 23 22 22 23 23 23 22 22 22 22 22 22 22 22 22 23 23 23 23 24 25 25
2 2 3 2 1 4 5 2 1 4 0 3 5 2 6 8 9 6 5 1 6 6 8 8 7 6 5 5 6 7 10 15 21 27 30 31 32 31 34 36 34 36 36 35 37 38 37 37 38 38 38 39 38 37 37 36 35 34 35 35 34 32 32 33 33 32 31 30 30 31 31 31 30 31 29 27 26 26 26 26 25 25 24 24 24 24 23 24 24 24 24 25 25 25 25 26 26
3 2 1 2 3 5 7 2 3 5 1 4 6 3 6 7 9 6 4 2 7 7 7 7 7 7 6 6 6 7 9 16 22 26 29 31 32 32 34 36 34 35 37 37 37 36 36 37 38 38 39 39 39 39 38 38 36 35 36 36 35 34 33 33 32 32 32 31 31 31 32 32 32 32 32 31 30 30 30 29 28 28 27 26 25 26 26 26 26 26 26 26 27 28 28 27 27
4 3 2 2 3 3 4 1 1 2 1 3 3 3 4 5 7 7 4 5 5 5 7 7 7 8 7 6 7 7 8 11 15 23 30 32 33 34 36 36 36 36 36 37 36 35 36 36 37 38 39 40 39 39 39 38 37 37 37 35 34 35 35 35 33 33 35 34 32 33 34 33 33 33 32 32 33 32 32 32 32 31 30 29 28 28 28 28 28 28 27 27 28 29 30 30 29
3 2 2 3 3 2 2 2 2 3 2 1 3 1 6 7 7 8 5 4 3 3 7 7 7 7 7 7 7 7 8 9 11 20 29 33 35 36 36 37 36 35 35 35 35 36 36 36 36 37 38 39 39 39 38 38 38 37 37 37 35 34 35 35 35 35 36 35 33 34 35 35 36 36 34 33 35 35 33 34 34 34 33 32 31 31 31 30 29 29 29 29 28 30 31 31 30
5 3 3 2 2 3 3 3 2 3 3 1 1 2 9 11 9 10 8 2 2 7 7 6 7 7 8 7 7 8 9 10 14 22 27 29 32 35 36 36 36 35 35 34 34 34 34 34 35 36 37 37 38 38 37 37 36 36 37 37 37 36 35 35 35 35 35 34 34 34 35 35 35 36 35 35 37 37 36 36 36 36 36 35 33 32 32 32 31 30 31 31 30 29 31 32 31
9 6 5 5 3 4 5 4 4 1 3 2 4 4 8 10 9 10 9 2 1 8 6 6 8 7 8 7 8 9 9 12 17 21 24 24 27 31 33 35 35 35 34 32 32 32 33 34 34 35 36 36 36 36 36 35 35 35 35 35 36 37 36 36 35 35 35 34 33 32 33 34 35 35 36 37 38 37 37 37 37 37 37 36 34 34 34 35 35 34 33 33 32 28 28 31 32
8 6 5 4 4 2 4 3 5 1 4 3 3 4 8 10 11 12 10 4 4 8 8 9 9 8 8 8 10 10 11 13 13 15 20 22 24 26 28 31 31 31 31 30 31 32 34 34 34 35 35 36 36 36 37 36 36 35 35 35 37 36 36 35 35 35 36 36 34 33 33 33 33 34 35 37 38 37 36 36 38 39 39 37 36 36 36 36 36 36 35 34 33 31 29 30 32
6 6 5 2 2 2 3 1 4 3 1 3 2 3 9 11 11 12 8 6 7 9 10 11 12 10 9 9 12 13 10 9 9 12 17 19 20 22 23 25 27 29 31 32 33 34 34 34 34 35 35 36 37 37 38 38 38 37 36 37 36 35 34 35 35 35 35 35 34 34 35 34 33 32 33 35 37 38 38 38 39 40 40 39 38 37 36 35 36 37 37 34 32 33 32 32 34
5 4 6 3 2 2 3 3 4 4 0 3 3 4 9 11 11 12 10 9 9 9 10 10 10 10 10 10 12 12 10 8 8 10 14 16 17 18 19 22 26 30 32 32 33 33 32 32 34 34 35 36 37 38 38 38 38 37 36 35 33 32 32 32 33 33 33 33 34 34 36 36 35 34 34 35 36 36 37 38 39 39 39 39 39 38 37 36 37 39 40 38 34 32 30 34 38
4 4 6 3 2 1 1 2 3 3 2 1 3 5 8 7 7 10 11 8 7 7 8 9 9 10 13 11 9 9 10 10 9 10 11 13 13 14 18 22 26 28 30 31 32 32 32 33 34 35 35 36 37 37 38 38 36 35 34 31 29 29 29 28 29 30 30 32 33 34 35 35 34 34 35 36 36 34 34 36 37 37 39 41 41 42 41 41 41 41 41 41 38 34 30 33 38
1 3 6 4 3 4 3 1 1 2 3 3 4 5 6 4 5 8 7 4 4 5 6 9 10 10 11 10 9 8 9 9 9 10 9 10 12 15 19 22 24 26 29 31 33 33 34 34 35 35 35 35 36 36 36 36 34 33 31 28 25 25 25 25 26 28 29 31 33 33 33 33 32 33 35 37 38 37 36 39 40 40 42 43 42 43 44 44 44 44 44 43 43 40 35 35 38
1 3 6 6 7 6 2 2 4 4 4 4 5 3 6 5 4 7 6 6 6 4 4 9 11 9 8 9 9 8 8 8 9 10 9 9 13 17 18 20 21 24 29 31 32 33 33 33 33 33 34 34 34 35 35 35 34 33 31 29 27 25 25 27 30 32 32 33 34 34 33 33 32 33 34 36 39 39 39 42 43 43 44 45 44 43 43 43 43 44 45 45 45 45 41 38 40
1 4 5 6 7 8 6 4 4 2 2 3 4 2 5 7 5 8 5 7 10 8 7 11 10 8 6 7 8 6 7 9 7 9 9 9 12 14 16 19 21 24 26 27 28 29 30 31 31 32 32 33 33 33 33 34 34 34 33 33 32 31 31 32 34 34 34 34 33 33 33 34 34 35 36 36 37 38 40 43 43 42 44 45 46 46 45 44 45 45 46 46 45 44 43 41 43
3 3 6 8 8 8 6 6 4 1 2 4 5 4 2 6 6 6 6 6 10 10 10 12 9 8 8 7 8 7 8 7 6 8 8 8 11 13 16 20 21 23 22 22 25 27 28 29 30 30 30 31 31 31 32 33 34 34 34 34 34 34 35 35 34 33 33 32 31 32 32 33 34 35 36 37 37 36 37 40 41 42 44 45 45 46 47 46 46 46 46 44 42 41 43 42 43
3 3 7 6 7 7 5 6 4 1 1 4 5 1 2 6 7 5 5 4 9 10 11 11 8 9 9 8 8 8 8 6 6 7 7 6 10 14 16 16 17 19 19 20 22 24 26 27 27 28 28 29 29 29 30 31 32 33 33 33 34 35 35 35 33 31 30 30 30 31 31 32 33 34 36 36 35 33 33 36 39 40 43 45 45 45 45 44 44 45 46 45 42 42 43 41 41
3 6 8 6 6 6 5 5 4 3 2 4 6 1 2 5 7 4 3 2 7 10 9 8 8 9 9 8 8 7 6 6 5 6 7 9 9 10 11 11 12 15 16 17 19 21 23 24 25 26 26 27 27 27 28 29 30 31 33 34 35 35 34 32 30 29 30 30 31 32 31 31 31 33 35 36 34 31 30 32 35 39 41 43 45 46 44 43 42 44 46 47 47 45 44 41 41
8 7 7 7 6 6 4 3 4 4 3 6 6 2 1 4 6 4 3 4 6 6 6 7 7 9 9 7 6 6 5 5 5 4 6 8 7 6 7 9 10 11 14 15 17 19 21 22 23 23 23 24 25 25 26 28 29 31 33 34 35 35 33 32 31 32 32 32 32 33 31 30 31 32 34 36 37 35 32 31 33 36 39 42 44 45 46 45 44 45 44 45 46 46 45 43 42
7 5 5 5 4 5 4 5 4 1 5 6 4 2 2 4 6 5 5 6 6 5 6 7 8 10 10 7 6 6 5 5 5 4 4 4 2 4 6 9 9 10 13 15 16 18 19 20 21 21 21 22 23 24 25 27 28 31 32 33 34 34 33 33 33 34 33 33 33 33 31 31 30 31 32 34 37 37 36 35 34 35 38 40 42 44 45 46 45 45 44 44 45 46 45 44 42
5 5 6 5 2 3 2 3 1 3 6 4 2 2 3 6 8 9 11 12 8 7 8 8 7 9 9 8 7 6 5 5 5 4 5 4 2 4 7 10 11 12 14 15 16 17 18 19 19 20 21 21 22 23 25 26 28 30 31 32 33 33 33 33 33 34 33 33 33 32 32 32 32 31 32 33 35 36 37 36 34 35 38 39 40 42 44 45 44 44 44 44 43 44 44 43 43
4 5 5 4 3 2 2 4 2 3 4 3 3 2 3 5 6 9 15 13 7 5 7 8 7 8 9 8 7 6 6 5 5 5 5 5 5 6 7 9 11 13 14 15 16 17 17 17 18 19 20 21 22 23 24 26 28 29 30 31 31 32 32 32 32 33 33 32 32 32 33 33 33 33 33 33 33 33 36 38 36 34 35 37 38 41 43 44 44 44 44 44 44 44 44 44 44
2 3 5 5 5 5 4 4 3 4 3 3 3 2 3 3 2 6 10 10 7 5 7 6 7 8 8 8 7 5 6 6 5 5 5 7 9 8 7 8 11 13 13 14 15 16 16 17 18 19 20 21 22 23 25 26 27 28 29 30 30 31 31 31 32 32 32 32 32 32 33 33 33 34 34 33 32 30 31 35 38 36 35 38 39 40 42 43 43 43 43 44 45 45 44 45 45
1 2 5 3 4 5 3 3 5 3 2 3 2 3 5 4 6 9 7 7 8 6 5 4 7 7 5 6 7 4 5 6 5 5 6 8 10 10 10 11 11 11 12 14 15 16 17 17 18 20 20 21 22 23 24 25 26 27 27 28 29 29 30 31 31 32 32 32 32 33 33 33 33 33 32 31 30 28 28 31 36 37 36 38 40 40 40 41 41 42 43 43 44 44 43 44 45
2 2 3 5 4 7 5 2 1 3 1 4 1 4 5 4 6 9 6 7 9 8 7 6 7 7 6 6 7 5 5 6 5 6 7 8 9 10 11 13 13 13 14 15 16 17 18 18 18 20 20 21 22 23 24 24 25 26 27 27 28 29 30 31 31 32 32 32 32 32 32 32 32 31 31 30 28 27 28 29 33 36 36 36 38 39 40 40 41 42 44 44 44 44 44 45 45
5 3 5 4 2 5 4 2 3 3 2 5 1 4 5 2 4 7 6 4 9 10 9 8 7 7 7 7 4 4 6 6 6 7 7 8 10 12 13 14 15 16 16 17 17 17 18 18 19 19 20 21 21 21 22 23 24 25 26 26 27 28 29 30 31 31 31 31 32 32 32 32 31 31 30 29 27 27 27 29 31 33 36 36 38 39 40 41 41 42 43 44 44 44 43 44 45
4 4 3 4 3 2 2 2 2 1 2 4 4 4 4 4 5 5 3 4 7 9 10 8 8 7 7 6 4 5 5 5 6 6 6 7 10 14 16 16 17 17 18 18 18 17 18 19 20 20 21 20 20 21 21 22 23 24 25 25 26 27 28 29 30 30 30 31 32 32 32 32 31 30 29 29 28 27 26 28 30 31 33 36 37 39 39 40 41 41 42 42 43 42 41 43 43
3 2 2 2 2 4 2 3 4 3 3 3 4 4 3 6 6 6 8 8 7 7 8 7 8 8 7 6 5 5 6 5 6 6 5 6 10 15 16 17 17 16 17 18 19 19 20 20 20 21 22 22 22 23 23 23 24 24 24 25 26 27 28 28 29 29 31 32 33 32 32 32 31 30 30 29 29 29 27 28 29 30 31 33 35 36 37 38 39 40 42 42 42 41 41 42 43
3 3 3 2 1 2 2 1 2 4 4 2 2 4 6 6 4 8 10 9 8 8 6 6 7 7 6 5 6 7 7 7 6 6 5 6 10 13 14 15 15 14 15 17 18 20 20 20 21 21 22 23 24 24 24 25 26 25 25 26 26 27 27 28 29 30 31 32 33 33 32 31 31 30 30 29 30 30 29 29 30 31 32 33 34 36 37 37 38 40 41 42 42 40 40 42 42
6 6 6 7 4 4 3 2 1 2 3 4 3 4 8 6 4 7 7 7 8 7 4 5 6 6 5 6 6 7 6 6 6 6 6 5 6 7 10 11 12 12 14 16 18 19 20 21 21 21 22 24 25 25 25 27 27 26 27 27 26 27 27 27 28 30 32 32 33 33 32 31 31 31 29 30 31 30 30 31 31 31 33 34 35 37 37 38 39 40 41 41 40 39 39 40 40
Wind_Direction
338 318 286 203 277 108 10 51 93 322 72 87 200 137 222 198 196 151 126 190 70 311 246 70 79 105 108 133 159 159 135 156 161 141 203 258 151 156 161 160 163 162 159 155 154 154 156 156 150 146 141 134 123 116 112 107 99 92 86 86 87 88 91 94 96 94 94 94 95 98 96 96 96 95 95 94 91 86 87 88 86 90 93 94 94 91 87 84 83 81 84 91 89 87 84 82 82
348 327 134 157 24 67 263 64 98 337 62 116 250 158 246 333 131 174 173 189 168 162 136 104 93 78 63 95 123 114 47 345 173 164 270 146 145 156 161 162 166 164 161 159 156 156 158 158 154 150 144 137 128 121 116 111 106 97 92 90 90 90 91 95 98 97 98 96 96 97 97 97 95 90 91 93 88 84 86 89 91 95 97 96 94 90 86 84 85 85 87 91 90 89 86 83 82
4 145 140 157 49 43 73 43 96 65 91 171 253 240 259 139 187 203 203 185 157 156 139 99 79 71 53 59 59 74 57 331 151 121 110 142 149 160 162 165 168 166 164 161 158 158 158 157 155 152 146 141 135 127 121 117 111 103 99 93 92 93 93 95 99 101 100 99 99 97 99 100 100 101 102 100 95 91 91 91 94 98 99 98 95 91 87 87 87 88 90 91 91 90 88 88 88
12 162 181 174 66 30 64 42 131 122 138 193 237 258 237 183 198 216 225 199 166 150 134 72 50 5 74 93 61 68 128 303 125 110 149 160 163 162 162 166 168 167 167 163 161 160 158 157 155 154 150 146 141 133 127 124 119 111 107 101 97 96 95 95 98 102 102 101 100 98 101 102 106 115 117 113 105 99 95 95 98 101 101 99 95 91 89 90 89 90 92 92 92 91 90 93 95
341 185 188 160 87 44 91 73 109 119 181 182 168 254 241 200 190 193 226 243 238 238 211 96 80 296 64 115 131 135 183 139 138 163 160 171 168 162 163 166 168 168 168 166 163 161 159 159 157 156 153 150 147 139 133 130 126 118 112 109 103 100 100 100 102 104 105 105 102 100 100 100 103 109 112 114 108 102 99 99 103 104 103 101 95 92 90 91 90 90 93 94 94 92 93 96 98
307 131 63 71 89 119 116 131 147 173 210 165 151 247 229 198 191 172 168 284 277 234 185 108 141 161 61 335 31 149 184 123 158 190 167 167 168 165 165 168 170 169 170 170 166 163 161 162 160 159 156 155 152 144 139 134 130 124 118 114 110 106 105 107 109 109 111 112 108 105 105 105 104 104 108 112 107 102 101 102 106 106 105 102 95 93 91 91 93 92 92 95 95 93 94 97 100
201 164 37 64 68 42 105 158 188 198 199 166 173 208 195 199 197 148 132 151 314 334 81 127 155 114 78 300 96 76 349 160 167 180 172 166 168 166 167 170 172 171 172 172 169 167 165 164 163 162 161 160 156 148 144 139 135 131 125 119 115 112 110 110 113 116 118 117 110 109 115 115 109 106 107 108 107 104 101 103 108 107 107 104 97 96 92 92 96 97 96 95 96 96 96 98 101
110 159 22 89 63 23 90 124 204 190 145 204 213 192 184 193 173 141 153 145 160 285 61 219 157 91 280 3 107 306 353 172 161 172 176 168 168 166 169 174 174 173 174 174 172 172 169 166 166 166 165 165 160 153 149 146 143 137 131 125 121 117 115 114 115 118 121 120 116 113 120 119 110 111 110 108 107 104 100 103 109 109 109 106 100 98 95 95 98 98 99 98 99 101 100 101 103
61 48 33 85 94 30 47 33 243 211 262 243 213 189 179 174 151 130 147 104 167 160 139 219 206 95 200 55 97 287 358 161 158 169 176 171 169 167 173 177 176 174 174 176 177 177 172 169 170 170 169 169 164 158 157 155 151 145 139 132 127 123 120 118 118 119 122 125 123 120 121 119 114 117 118 113 110 106 102 104 111 112 111 109 103 100 99 100 101 102 103 101 102 102 104 105 106
43 22 129 72 83 50 14 304 290 239 267 255 210 205 173 160 148 124 135 147 150 131 200 236 72 94 145 101 207 290 38 151 153 165 171 169 169 170 176 179 179 176 175 178 179 180 175 172 175 174 173 173 169 165 165 164 160 153 147 142 136 132 128 125 123 123 125 128 129 128 127 126 124 122 122 121 117 115 111 109 115 115 113 112 107 102 104 105 104 106 106 104 103 104 108 109 111
37 357 101 73 72 105 202 211 278 260 284 314 277 240 178 145 120 105 112 142 64 102 193 345 86 122 100 77 239 284 159 154 158 165 167 168 170 173 177 179 181 179 177 178 180 182 177 175 179 178 178 176 174 173 173 172 167 160 155 151 145 141 137 134 131 129 129 130 134 135 135 136 132 123 122 124 122 121 117 115 118 119 118 116 112 110 110 109 107 108 109 108 108 108 112 114 115
91 343 70 86 138 181 197 170 255 271 316 333 233 248 160 121 114 158 155 147 149 102 213 221 151 136 81 325 260 312 172 162 166 167 169 171 172 175 178 179 182 182 180 179 180 182 178 177 181 181 182 180 179 179 178 176 172 166 161 157 152 149 145 141 137 134 133 133 137 139 141 143 137 128 126 126 125 122 120 119 121 122 121 121 121 118 118 117 112 109 110 113 113 113 114 115 116
117 137 93 112 170 158 161 148 239 303 331 271 208 217 133 128 187 184 152 126 140 136 245 222 148 111 97 247 281 314 198 171 165 168 174 176 176 177 179 180 181 183 183 182 182 182 180 179 183 183 183 183 183 182 182 180 177 172 166 163 159 156 151 147 143 139 137 136 138 141 144 144 138 134 133 133 130 125 124 123 123 125 124 129 131 124 125 127 122 116 115 117 118 117 116 116 115
133 146 117 129 102 129 151 134 209 167 246 254 222 169 142 173 206 170 136 121 194 183 235 204 147 116 112 235 303 292 202 176 162 165 173 178 181 179 181 183 183 185 186 187 186 185 183 183 185 185 184 185 186 185 184 185 183 178 173 170 167 165 160 155 152 147 143 140 140 142 143 141 139 138 138 139 135 131 130 127 126 128 125 129 133 131 134 135 131 127 125 125 125 122 120 119 117
134 132 92 107 74 124 168 154 159 157 221 229 176 156 152 251 155 149 155 147 210 230 101 118 141 159 181 168 222 221 188 173 162 163 167 175 182 183 185 186 187 189 190 192 191 190 188 187 188 186 187 188 188 186 186 188 188 186 180 176 175 173 169 164 161 158 151 146 143 144 141 138 139 140 140 141 140 136 136 135 133 131 129 128 130 137 143 140 138 134 131 130 130 128 125 124 122
115 110 70 90 133 169 179 164 125 139 234 211 172 142 132 283 144 155 217 147 161 298 32 297 40 347 188 168 237 198 176 168 164 164 162 168 178 183 188 188 190 192 192 196 196 196 193 191 190 189 190 190 189 186 187 190 191 192 187 183 182 179 175 173 169 165 160 154 149 146 144 141 143 143 142 144 145 143 143 145 141 137 136 132 130 142 149 147 145 140 137 135 134 132 130 129 128
73 83 71 81 161 191 187 170 162 173 217 209 228 167 138 253 269 170 247 94 121 63 30 283 309 359 202 236 317 175 169 168 167 165 162 164 170 177 184 188 190 192 194 198 199 199 198 196 193 192 193 193 191 189 190 192 194 196 192 188 186 183 181 179 176 172 168 164 159 155 152 149 149 149 149 150 150 150 151 151 145 140 136 131 136 149 152 150 150 145 141 139 136 135 133 134 134
60 84 109 169 185 199 185 176 192 177 177 191 202 184 147 158 212 177 67 54 75 74 24 330 319 344 300 289 311 159 165 169 169 167 164 164 168 174 181 187 190 192 196 199 201 201 200 199 196 196 196 195 194 193 194 194 195 198 196 191 189 187 185 184 181 178 177 173 169 166 162 157 156 156 155 156 156 156 157 156 147 140 136 138 147 154 154 153 151 146 145 143 140 139 136 136 137
86 112 115 213 203 202 192 175 190 177 168 181 179 184 163 164 174 145 149 154 86 127 316 344 329 323 357 37 138 153 164 168 172 171 170 170 173 178 181 187 192 195 198 201 202 203 203 202 199 199 199 198 197 196 196 196 195 198 199 195 191 191 189 187 186 185 184 182 178 175 170 164 162 162 162 161 162 162 163 161 151 144 144 149 155 158 156 156 153 150 148 147 145 143 140 138 140
148 122 115 236 210 214 229 184 201 207 159 160 169 182 162 170 171 152 166 159 141 183 207 246 243 262 326 115 142 152 163 169 175 177 178 180 182 184 185 189 195 197 201 204 203 204 205 204 201 201 201 200 201 199 196 197 196 197 201 199 195 194 192 190 191 191 189 189 186 182 178 171 168 168 167 166 167 168 168 167 159 153 155 159 163 163 160 159 156 153 151 151 150 148 144 143 144
148 123 172 227 184 178 228 198 220 222 165 161 152 130 144 195 175 141 145 137 250 240 215 197 200 200 173 162 156 155 164 172 180 185 186 188 189 191 192 195 199 201 202 204 205 206 207 206 204 203 203 203 203 202 199 198 197 197 201 202 200 196 194 194 194 196 193 194 193 189 185 178 174 173 172 171 172 173 173 174 168 162 163 164 168 167 163 162 160 156 154 154 153 151 148 147 149
106 171 197 202 153 139 218 194 212 172 134 132 131 144 168 166 134 147 152 161 230 233 215 208 193 172 166 169 166 163 169 176 186 193 194 195 196 197 199 201 202 204 204 204 207 209 210 209 207 206 205 205 205 204 203 200 198 198 200 203 204 200 197 196 197 199 198 197 198 195 191 185 181 177 177 176 177 179 178 178 174 170 170 168 171 172 166 165 164 160 159 157 155 155 152 151 152
125 258 248 211 190 165 288 227 241 144 125 142 157 165 140 120 161 181 172 196 222 224 226 212 184 165 163 158 162 169 176 184 192 198 198 198 199 200 201 203 203 205 206 207 209 209 211 211 211 210 208 207 207 207 206 203 201 201 202 203 205 204 200 200 199 201 202 200 201 201 197 193 188 182 180 182 182 183 182 181 178 176 175 171 174 177 171 169 168 165 164 162 159 159 157 155 155
102 169 283 228 187 172 340 11 54 129 136 175 169 125 126 154 169 115 206 232 241 263 286 190 153 149 152 153 169 181 184 190 197 201 201 202 203 203 203 204 205 206 208 209 210 210 211 211 211 213 212 209 208 208 208 206 205 204 204 205 207 208 204 203 202 202 204 203 203 204 204 199 195 189 184 185 187 186 184 183 182 180 180 176 177 181 178 173 172 171 170 166 164 164 161 159 158
92 161 209 93 50 336 343 33 64 87 115 144 120 114 211 194 151 129 236 247 253 271 8 123 137 141 156 167 181 186 190 198 204 206 207 209 209 208 208 208 208 209 211 211 211 211 212 211 211 213 215 213 210 209 210 209 208 206 206 207 209 210 208 207 206 203 205 206 205 206 207 205 201 197 190 187 190 190 187 185 185 184 184 182 180 184 185 180 176 175 174 171 168 167 163 161 161
168 133 145 99 11 335 355 37 45 54 57 61 119 110 314 228 166 255 245 246 241 92 71 114 136 147 174 180 186 188 193 202 207 209 211 214 213 214 215 213 212 213 215 214 212 212 212 212 211 213 215 215 213 212 211 211 210 208 209 209 211 212 211 211 209 206 207 209 208 208 209 210 207 204 198 192 191 193 191 189 188 187 187 187 185 186 187 186 181 178 177 175 171 168 164 163 162
145 109 106 84 20 325 5 62 20 19 36 44 142 174 307 302 304 254 260 289 154 109 92 135 150 166 186 186 195 195 199 206 207 207 210 214 215 218 219 216 217 218 217 217 216 214 213 213 213 213 214 215 215 214 214 214 214 212 212 211 212 215 215 214 213 209 209 211 212 212 212 213 212 209 206 200 196 195 194 193 193 192 191 190 190 189 188 188 185 180 180 177 173 170 165 164 164
118 118 94 19 6 14 32 85 12 5 74 64 125 151 310 345 296 223 262 326 199 147 138 168 176 188 195 194 200 200 211 215 209 205 206 211 213 216 218 218 219 219 218 219 218 215 214 214 214 214 214 215 216 215 216 216 217 216 216 215 214 217 218 217 218 215 212 212 213 214 215 215 215 214 211 207 202 199 197 196 196 197 197 194 194 193 189 188 187 182 179 177 174 171 166 163 163
111 103 98 345 4 35 10 88 325 9 123 297 106 69 296 250 233 214 265 354 88 152 175 195 205 211 207 206 210 209 221 222 212 212 215 216 215 215 218 220 220 219 221 222 220 218 217 216 214 214 214 216 217 217 218 218 219 218 217 218 216 216 218 219 222 221 218 215 214 215 216 217 217 216 214 213 210 204 201 199 199 201 202 199 196 196 192 188 187 183 179 176 175 172 167 163 162
117 63 97 26 11 359 314 28 323 113 128 311 123 186 274 253 247 233 304 29 98 163 221 223 225 226 223 216 219 227 230 224 217 220 222 222 221 220 222 224 223 222 224 223 222 222 221 218 216 215 215 217 219 218 220 220 220 221 220 221 220 217 218 220 223 225 224 222 219 217 216 219 220 218 215 214 214 210 205 202 201 202 203 203 199 198 196 192 190 186 181 177 175 172 168 164 163
88 61 61 59 102 261 300 322 141 133 198 7 110 181 266 265 271 275 295 214 152 198 231 232 234 235 232 222 223 236 237 229 227 228 227 227 227 225 227 229 227 226 227 225 225 225 224 222 219 217 217 218 220 221 221 221 222 222 222 222 223 222 220 220 221 223 225 226 225 222 219 219 221 221 217 215 214 213 209 205 204 203 201 203 202 201 199 195 192 189 185 180 174 172 170 165 165
43 102 321 349 163 255 309 297 159 144 273 35 100 204 267 271 276 289 323 136 170 206 232 240 242 241 238 231 228 235 245 239 237 238 236 234 232 230 231 232 230 228 228 227 227 227 225 225 222 220 220 220 222 223 223 223 224 224 222 220 221 224 225 224 223 225 227 227 227 227 224 223 223 223 221 218 214 212 212 209 207 206 203 202 202 201 200 197 194 189 186 185 178 173 171 167 166
0 101 189 252 167 259 314 304 261 126 146 16 69 212 264 287 280 292 351 83 144 202 242 253 246 247 243 234 234 235 250 251 244 242 240 238 236 235 234 235 235 233 231 230 228 227 226 226 224 222 222 222 223 224 224 225 226 226 226 224 222 222 223 225 227 229 227 225 228 228 225 224 224 224 225 225 220 215 213 212 209 206 203 202 202 202 200 198 195 190 185 186 184 177 174 170 166
303 51 125 225 182 197 285 278 310 46 102 312 10 257 252 274 287 293 319 56 69 248 251 256 249 253 251 242 245 240 244 250 246 240 238 238 238 238 238 238 238 237 235 233 231 229 229 228 226 225 224 224 225 225 226 228 228 227 227 229 228 225 224 224 225 226 222 220 224 228 227 226 223 220 220 225 225 220 216 213 211 207 203 201 200 198 197 196 195 193 187 185 187 183 177 173 169
195 181 146 205 213 204 242 249 254 43 70 220 14 297 265 272 287 292 293 9 328 270 257 261 257 251 253 250 247 243 243 247 246 242 240 239 239 239 239 240 240 239 237 236 233 231 230 229 228 227 225 224 225 226 227 228 227 227 227 228 229 230 231 228 226 226 225 222 221 223 226 229 230 225 222 224 222 219 216 213 211 207 203 201 198 193 191 191 191 192 190 185 184 184 180 176 171
174 178 146 153 177 227 241 254 266 123 111 221 219 236 269 277 284 288 288 322 285 278 284 277 264 254 251 248 245 244 241 245 248 248 249 247 245 243 241 240 239 238 237 235 233 231 230 229 228 228 226 225 224 223 224 224 223 224 225 226 227 228 229 229 230 230 232 231 227 225 224 225 228 228 229 226 219 215 213 212 213 209 205 202 199 195 193 193 192 191 189 185 181 177 177 176 173
143 131 111 144 164 235 250 269 305 78 134 252 239 240 268 274 276 273 279 312 300 279 281 270 262 258 252 248 251 246 239 248 256 256 255 253 251 249 244 240 236 234 234 232 231 231 230 229 227 227 227 224 222 221 220 220 219 219 221 224 226 227 227 227 229 230 231 233 233 233 231 227 226 227 229 226 221 219 218 217 216 212 208 206 205 203 201 198 194 191 188 186 184 178 174 174 173
106 133 125 118 169 220 247 238 315 348 155 262 352 309 269 263 270 270 272 283 263 247 248 254 255 255 257 254 255 253 250 263 271 262 256 253 251 248 243 238 232 230 230 229 229 231 230 227 226 227 226 223 223 222 221 221 221 221 221 224 226 228 228 228 229 230 230 231 232 233 234 233 232 232 233 230 224 222 221 218 216 212 209 207 208 207 203 197 191 189 187 183 184 184 180 177 176
87 117 130 135 193 228 288 293 328 5 43 263 345 336 275 261 263 264 256 247 243 235 231 242 249 252 255 248 250 259 269 277 276 267 261 254 250 245 238 233 231 231 230 228 228 228 226 225 227 227 226 224 224 224 223 223 224 224 224 226 228 229 230 231 231 232 231 231 231 232 232 232 233 234 235 232 226 221 219 217 215 213 212 210 209 206 202 198 192 191 191 187 183 182 183 182 180
89 106 130 160 242 145 207 282 328 15 66 259 318 308 277 276 280 270 260 250 254 257 248 247 245 244 249 250 250 255 261 267 271 271 269 264 255 240 230 228 230 229 227 226 225 225 224 225 228 227 226 226 225 224 224 224 223 223 223 226 229 230 232 233 232 232 231 230 230 230 230 231 231 231 232 232 231 230 228 225 223 221 219 216 212 207 203 199 196 194 193 190 185 179 179 184 184
62 133 137 161 202 171 185 265 354 9 21 31 2 322 290 308 321 284 283 306 280 270 278 268 253 245 252 265 264 249 249 254 260 265 267 267 255 239 229 227 228 224 223 225 224 223 224 226 228 228 227 227 226 225 223 221 220 220 220 222 225 228 230 231 230 230 230 230 231 231 231 232 232 232 230 230 231 233 235 231 228 228 224 217 211 207 204 201 199 198 195 193 192 189 185 185 187
286 203 175 177 170 157 145 54 58 37 356 353 24 356 290 313 316 272 295 341 304 290 300 274 262 257 253 262 265 253 250 245 243 256 258 254 251 246 237 229 225 223 224 226 225 224 225 227 228 228 227 227 226 225 223 221 220 220 219 218 218 220 223 227 228 231 231 232 234 234 234 233 234 235 235 233 230 231 235 232 226 224 223 219 214 210 206 202 200 200 198 196 198 199 193 186 188
198 223 171 149 128 123 124 98 76 84 265 319 42 111 265 308 293 265 309 334 304 299 292 273 271 279 265 255 261 249 248 247 242 253 252 246 248 245 239 231 225 227 228 226 224 224 224 226 228 228 228 228 227 226 224 223 221 221 222 222 222 222 224 229 232 234 237 238 240 239 238 236 234 234 236 238 234 231 230 228 227 226 223 220 216 212 209 207 206 204 203 201 201 200 196 190 189
200 213 123 118 115 124 132 102 87 195 241 327 14 111 242 296 266 271 333 332 304 298 283 278 285 295 283 261 252 239 238 240 237 252 255 246 240 236 236 233 228 229 229 225 222 223 224 226 228 228 228 229 228 227 225 224 223 223 224 225 226 227 230 234 236 238 240 242 243 242 241 239 235 233 234 236 237 235 229 223 224 227 224 219 214 212 211 211 210 207 204 203 202 201 200 198 193
223 178 115 112 116 122 117 94 88 17 353 315 316 111 196 274 273 306 347 315 289 281 268 276 291 296 292 277 259 249 253 249 234 250 263 256 242 237 238 237 231 229 229 227 225 225 225 225 227 227 228 228 228 227 226 226 226 227 227 226 228 231 234 237 239 240 242 243 245 245 244 240 235 233 233 233 233 234 233 227 223 224 224 221 218 215 213 212 211 208 204 203 204 205 205 204 199
178 134 95 73 72 78 76 88 96 44 14 250 260 224 185 267 285 317 358 267 261 264 265 269 274 284 291 287 273 266 276 276 257 253 263 269 264 252 243 239 234 230 228 227 226 225 224 224 224 225 227 227 228 228 227 227 227 228 229 229 231 233 235 236 238 240 242 243 246 246 246 243 238 234 232 234 235 236 236 233 229 226 225 224 222 219 215 214 213 211 209 207 207 208 208 207 206
137 109 71 56 34 31 45 52 77 59 312 254 251 257 177 265 281 261 212 217 224 248 287 289 292 305 304 298 292 285 286 290 290 277 269 273 267 248 234 230 231 227 224 224 223 223 223 223 223 224 226 227 228 229 229 230 230 230 232 233 234 236 237 237 237 239 241 242 244 245 246 245 243 239 236 235 237 240 241 239 236 232 228 225 224 222 219 219 218 215 213 211 210 211 211 210 211
108 92 88 82 8 9 26 2 36 103 258 260 257 258 172 221 261 252 242 256 237 226 267 280 295 311 312 319 325 305 292 307 322 312 289 290 228 201 207 211 220 222 219 220 220 221 221 221 222 223 225 228 229 231 232 233 233 234 236 237 238 240 240 240 240 241 242 242 244 245 246 246 245 243 240 237 236 237 241 242 240 236 231 227 226 225 223 221 220 218 215 215 214 213 213 212 212
74 95 100 93 13 10 0 319 341 216 245 264 263 228 201 232 251 256 262 270 254 220 232 246 267 292 300 314 327 323 321 320 318 312 307 307 253 211 203 202 209 216 219 220 218 219 220 220 222 224 227 230 231 233 234 236 236 237 238 239 241 243 243 243 244 245 246 246 247 246 246 246 246 245 242 240 238 236 237 240 241 236 232 231 230 228 226 222 220 218 217 216 216 214 213 213 213
117 133 124 122 123 99 260 267 280 259 256 274 266 236 246 260 257 249 252 261 258 226 233 239 253 273 280 288 301 307 308 301 295 302 306 292 266 243 223 212 211 215 219 219 219 219 219 220 224 227 231 233 234 236 238 238 240 241 241 243 244 245 245 246 247 249 250 250 250 249 248 248 248 248 248 247 246 242 238 237 240 240 236 235 233 230 227 224 222 221 221 219 218 217 216 217 218
168 162 129 141 155 152 203 220 212 242 276 296 282 250 202 206 257 247 242 263 281 255 244 251 259 260 266 279 282 284 288 288 291 292 280 268 265 263 254 236 224 222 222 220 220 221 221 224 228 231 233 235 236 239 240 241 242 243 244 245 246 246 248 249 251 252 253 253 252 252 252 251 250 251 252 255 255 252 247 241 240 242 242 239 237 232 227 225 224 223 223 222 221 222 220 220 221
234 129 103 154 185 140 139 183 176 176 320 305 259 238 213 206 281 278 263 286 296 277 276 296 281 281 306 292 280 292 293 280 276 275 267 264 265 265 262 253 243 235 230 226 225 226 228 230 232 235 237 239 240 241 242 244 246 246 246 247 248 249 250 251 252 253 254 255 255 256 256 255 255 255 255 257 258 258 256 248 241 241 240 236 234 233 228 225 225 224 223 223 223 223 221 221 222
167 127 173 215 177 111 114 204 70 83 264 273 226 253 290 330 295 289 302 300 296 301 307 301 287 304 325 295 284 301 285 266 266 263 262 270 273 270 263 256 252 245 238 237 235 235 237 237 236 237 239 239 241 243 245 247 248 248 249 249 250 251 251 253 254 256 257 258 258 258 258 258 257 257 257 257 258 260 260 253 244 240 239 235 233 233 231 229 228 226 225 224 224 223 222 223 224
121 171 210 198 128 90 107 168 6 43 243 274 269 242 285 331 278 311 347 293 273 280 278 278 293 305 299 284 269 245 247 257 273 269 269 278 278 274 267 259 253 249 246 246 245 245 246 245 243 242 242 242 244 247 248 249 250 250 251 252 253 254 254 256 257 258 260 259 259 259 259 259 258 258 259 258 259 262 261 255 248 242 239 237 234 233 233 232 230 228 227 226 226 226 224 225 226
129 188 176 116 144 166 91 146 173 138 234 280 299 279 260 208 228 291 300 223 240 262 265 268 278 281 281 285 264 232 244 269 278 271 269 271 267 263 261 257 254 251 250 249 250 252 251 250 248 247 248 249 250 251 251 251 252 253 255 256 256 257 257 258 259 260 260 259 259 260 259 259 259 259 259 258 259 259 256 254 252 245 238 235 235 233 233 232 230 228 228 228 228 228 226 227 227
61 116 109 82 139 165 164 157 161 170 196 258 308 324 262 222 212 213 223 225 223 243 255 248 249 256 265 285 304 306 304 305 296 281 271 270 268 265 259 256 254 252 253 252 250 251 251 252 252 250 251 252 251 250 250 252 253 253 255 257 257 258 258 259 260 260 260 260 260 260 260 260 260 260 259 259 258 256 254 253 252 249 242 236 235 235 234 233 231 230 231 230 230 229 227 228 228
117 134 167 194 76 108 166 149 118 143 160 192 283 300 266 246 208 191 210 225 217 217 229 230 241 260 274 303 323 319 306 297 292 282 268 253 254 263 265 258 253 251 252 252 252 254 254 255 255 254 255 255 254 253 252 253 254 253 254 256 257 259 259 260 261 260 260 260 261 260 260 260 260 259 259 259 257 254 254 255 251 249 248 244 240 239 238 235 233 232 232 232 232 229 227 228 228
164 179 194 186 157 126 157 245 262 115 145 173 185 272 268 247 201 195 206 220 222 217 222 249 266 275 302 325 306 287 282 280 283 284 277 253 245 278 288 269 252 248 250 251 252 254 256 258 259 259 260 260 259 258 256 256 256 255 255 256 257 259 260 260 261 261 260 260 260 259 259 259 258 258 259 258 257 253 254 257 255 251 250 250 246 241 239 237 235 234 233 232 231 229 229 229 228